TimeCST,TemperatureF,Dew PointF,Humidity,Sea Level PressureIn,VisibilityMPH,Wind Direction,Wind SpeedMPH,Gust SpeedMPH,PrecipitationIn,Events,Conditions,WindDirDegrees,DateUTC
12:15 AM,32.0,29.5,90,30.25,10.0,NE,5.8,-,N/A,,Clear,40,2013-01-17 06:15:00
12:35 AM,31.6,29.3,91,30.27,10.0,North,4.6,-,N/A,,Scattered Clouds,10,2013-01-17 06:35:00
12:55 AM,30.7,28.0,90,30.29,7.0,North,8.1,-,N/A,,Scattered Clouds,10,2013-01-17 06:55:00
1:15 AM,30.9,28.4,90,30.31,5.0,North,5.8,-,N/A,,Mostly Cloudy,360,2013-01-17 07:15:00
1:35 AM,31.1,28.4,90,30.31,4.0,North,9.2,-,N/A,,Overcast,350,2013-01-17 07:35:00
1:55 AM,31.1,28.4,90,30.32,5.0,North,5.8,-,N/A,,Overcast,360,2013-01-17 07:55:00
2:35 AM,31.1,28.4,90,30.33,7.0,NW,6.9,-,N/A,,Overcast,310,2013-01-17 08:35:00
2:55 AM,30.2,28.0,92,30.34,7.0,NNW,6.9,-,N/A,,Overcast,340,2013-01-17 08:55:00
3:35 AM,28.9,26.6,91,30.34,10.0,WNW,3.5,-,N/A,,Mostly Cloudy,300,2013-01-17 09:35:00
3:55 AM,28.2,26.1,92,30.34,10.0,NNW,4.6,-,N/A,,Scattered Clouds,330,2013-01-17 09:55:00
4:15 AM,27.3,25.5,93,30.34,7.0,West,3.5,-,N/A,,Clear,260,2013-01-17 10:15:00
4:35 AM,27.1,25.5,94,30.35,7.0,West,4.6,-,N/A,,Clear,280,2013-01-17 10:35:00
4:55 AM,26.1,24.4,94,30.36,7.0,West,4.6,-,N/A,,Clear,270,2013-01-17 10:55:00
5:15 AM,27.9,26.4,94,30.36,7.0,West,3.5,-,N/A,,Mostly Cloudy,280,2013-01-17 11:15:00
5:35 AM,29.7,28.2,94,30.36,5.0,Calm,Calm,-,N/A,,Overcast,0,2013-01-17 11:35:00
5:55 AM,30.0,28.4,94,30.36,4.0,Calm,Calm,-,N/A,,Overcast,0,2013-01-17 11:55:00
6:15 AM,30.0,28.8,95,30.36,1.8,Calm,Calm,-,N/A,,Overcast,0,2013-01-17 12:15:00
6:35 AM,30.0,28.9,96,30.37,1.2,Calm,Calm,-,N/A,,Overcast,0,2013-01-17 12:35:00
6:55 AM,30.2,29.3,96,30.37,3.0,Calm,Calm,-,N/A,,Overcast,0,2013-01-17 12:55:00
7:15 AM,30.4,29.3,96,30.37,3.0,Calm,Calm,-,N/A,,Overcast,0,2013-01-17 13:15:00
7:35 AM,30.2,29.3,96,30.37,1.8,Calm,Calm,-,N/A,,Overcast,0,2013-01-17 13:35:00
7:55 AM,30.0,29.1,96,30.39,0.2,Calm,Calm,-,N/A,Fog,Light Freezing Fog,0,2013-01-17 13:55:00
8:15 AM,29.5,28.6,96,30.40,0.2,Calm,Calm,-,N/A,Fog,Light Freezing Fog,0,2013-01-17 14:15:00
8:35 AM,29.3,28.4,96,30.41,0.2,Calm,Calm,-,N/A,Fog,Light Freezing Fog,0,2013-01-17 14:35:00
8:55 AM,29.3,28.4,96,30.41,0.2,Calm,Calm,-,N/A,Fog,Light Freezing Fog,0,2013-01-17 14:55:00
9:15 AM,29.8,28.9,96,30.42,0.2,East,3.5,-,N/A,Fog,Light Freezing Fog,90,2013-01-17 15:15:00
9:35 AM,30.0,29.1,96,30.44,0.2,Calm,Calm,-,N/A,Fog,Light Freezing Fog,0,2013-01-17 15:35:00
9:55 AM,29.8,28.9,96,30.45,0.2,Calm,Calm,-,N/A,Fog,Light Freezing Fog,0,2013-01-17 15:55:00
10:15 AM,30.0,29.1,96,30.46,0.2,Calm,Calm,-,N/A,Fog,Light Freezing Fog,0,2013-01-17 16:15:00
10:35 AM,30.0,29.1,96,30.46,0.2,Calm,Calm,-,N/A,Fog,Light Freezing Fog,0,2013-01-17 16:35:00
10:55 AM,30.2,29.3,96,30.45,0.2,South,5.8,-,N/A,Fog,Light Freezing Fog,190,2013-01-17 16:55:00
11:15 AM,30.2,29.3,96,30.44,0.2,South,6.9,-,N/A,Fog,Light Freezing Fog,180,2013-01-17 17:15:00
11:35 AM,30.2,29.3,96,30.45,0.2,Calm,Calm,-,N/A,Fog,Light Freezing Fog,0,2013-01-17 17:35:00
11:55 AM,30.6,29.7,96,30.43,0.2,South,4.6,-,N/A,Fog,Light Freezing Fog,170,2013-01-17 17:55:00
12:15 PM,30.9,30.0,96,30.42,0.5,Calm,Calm,-,N/A,Fog,Light Freezing Fog,0,2013-01-17 18:15:00
12:35 PM,31.1,30.2,96,30.42,0.5,Calm,Calm,-,N/A,Fog,Light Freezing Fog,0,2013-01-17 18:35:00
12:55 PM,31.1,30.2,96,30.41,1.0,Calm,Calm,-,N/A,,Overcast,0,2013-01-17 18:55:00
1:15 PM,31.6,30.7,96,30.40,3.0,WSW,3.5,-,N/A,,Overcast,240,2013-01-17 19:15:00
1:35 PM,31.8,30.9,96,30.39,3.0,South,3.5,-,N/A,,Overcast,180,2013-01-17 19:35:00
1:55 PM,32.0,31.5,98,30.39,5.0,South,3.5,-,N/A,,Overcast,190,2013-01-17 19:55:00
2:15 PM,32.5,32.0,98,30.39,7.0,Calm,Calm,-,N/A,,Overcast,0,2013-01-17 20:15:00
2:35 PM,34.0,32.9,96,30.38,10.0,Calm,Calm,-,N/A,,Mostly Cloudy,0,2013-01-17 20:35:00
2:55 PM,35.1,32.5,91,30.38,10.0,Calm,Calm,-,N/A,,Scattered Clouds,0,2013-01-17 20:55:00
3:15 PM,35.4,32.7,90,30.38,10.0,Calm,Calm,-,N/A,,Clear,0,2013-01-17 21:15:00
3:35 PM,35.8,32.9,89,30.38,10.0,East,3.5,-,N/A,,Clear,80,2013-01-17 21:35:00
3:55 PM,36.0,32.9,89,30.37,10.0,ESE,3.5,-,N/A,,Clear,110,2013-01-17 21:55:00
4:55 PM,34.9,32.2,90,30.39,10.0,ENE,4.6,-,N/A,,Clear,70,2013-01-17 22:55:00
5:35 PM,32.5,31.5,96,30.38,7.0,East,4.6,-,N/A,,Clear,100,2013-01-17 23:35:00
7:55 PM,29.1,28.0,96,30.35,4.0,SSE,5.8,-,N/A,,Clear,150,2013-01-18 01:55:00
8:15 PM,29.1,28.0,96,30.34,5.0,SSE,5.8,-,N/A,,Clear,160,2013-01-18 02:15:00
8:55 PM,28.2,27.1,96,30.33,4.0,ESE,4.6,-,N/A,,Clear,120,2013-01-18 02:55:00
9:15 PM,27.5,26.4,96,30.33,4.0,SE,5.8,-,N/A,,Clear,130,2013-01-18 03:15:00
9:35 PM,27.9,26.8,96,30.32,4.0,SSE,4.6,-,N/A,,Clear,160,2013-01-18 03:35:00
9:55 PM,27.0,25.9,96,30.32,3.0,South,5.8,-,N/A,,Clear,170,2013-01-18 03:55:00
11:15 PM,26.6,25.7,96,30.28,4.0,South,6.9,-,N/A,,Clear,170,2013-01-18 05:15:00
11:35 PM,27.3,26.2,96,30.27,5.0,South,3.5,-,N/A,,Clear,180,2013-01-18 05:35:00
11:55 PM,28.0,26.6,94,30.27,5.0,South,4.6,-,N/A,,Clear,180,2013-01-18 05:55:00